YAOGAN 29 DEB, 42673

Orbit data source: Space-Track

YAOGAN 29 DEB, 42673 is space debris in SSO originally from a launch on Thu, 26 Nov 2015 UTC launched from the Taiyaun Space Center, China (TSC). Debris objects in space refer to the collection of defunct objects orbiting the Earth. Examples of debris include non-operational satellites, rocket bodies, and fragments generated from explosions, collisions, or faulty payload assembly.

Loading next visibility...
YAOGAN 29 DEB details
Identifier
42673, 2015-069F
Orbit
SSO
Last TLE update2 days ago
Origin
Flag of CNCNSA (CN / PRC)
ManufacturerUnknown
MissionSpacecraft
Bus & MotorUnknown
MassUnknown
Launch date (UTC)
2015-11-26 (9 years ago)
Launch vehicleUnknown
Launch site
Taiyaun Space Center, China (TSC)
Object type
Payload
Rocket body
Debris
Shape & HBRUnknown
Radar Cross SectionSmall (<0.1 m²)

Expand to show TLE details & history

TLE from 2 days ago
0 YAOGAN 29 DEB
1 42673U 15069F   24359.33394601  .00002914  00000-0  31401-3 0  9993
2 42673  97.9371  23.6412 0003545  14.4678 345.6640 14.89227543491574
Epoch: 2024-12-24T08:00Z
Definitive object data (Epoch: 2024-12-24T08:00:52.935Z)
Latitude0.00002°
Longitude170.07709°
Altitude600.983 km
Speed7.56 km/s
True Right ascension01h 34m 33s
True Declination0° 00' 00"
Sunlit
Object was in daylight at TLE epoch
Visualization TLE readout
Latitude-47.13077°
Longitude-179.05025°
Altitude617.13 km
Speed7.55 km/s
Apparent Right ascension02h 08m 41s
Apparent Declination-43° 31' 52"
Sunlit
Object is in daylight
Visualization observer readout
Local Sidereal Time13:59:35
Azimuth204.429° SW
Elevation-86.006°
Doppler factor1
Orbital elements
Apogee altitude599.851 km
Perigee altitude594.905 km
Semi-major axis6,975.515 km
Eccentricity0.0003545
Inclination97.9371°
RAAN23.6412°
Arg. of periapsis14.4678°
True anomaly345.65394°
Mean anomaly345.664°
Eccentric anomaly345.65897°
Mean motion3.72545 °/min
BSTAR0.00031401
Orbital period96.63 mins
Loading maneuver chart data...
Loading historical data...
Loading historical data...
Loading historical data...
Loading historical data...
Loading historical data...
Loading historical data...
Loading historical data...

YAOGAN 29 DEB Visibility forecast

Observer location: undefined°, undefined

Span
Click to sort rows by Start time (UTC) header in descending order
Start Az.
Max El. time (UTC)
Max El. Az.
Max El.
End time (UTC)
End Az.
7 mins2024-12-26 15:23:42.755Z351.976° N2024-12-26 15:27:42.755Z280.628° WNW27.565°2024-12-26 15:30:42.755Z229.739° WSW
6 mins2024-12-27 02:15:42.755Z193.894° SSW2024-12-27 02:18:42.755Z278.137° WNW35.591°2024-12-27 02:21:42.755Z332.088° NNW
5 mins2024-12-27 14:00:42.755Z52.085° ENE2024-12-27 14:02:42.755Z91.136° ESE23.82°2024-12-27 14:05:42.755Z147.145° SSE
|